THOR ABLESTAR R/B, 47

Orbit data source: Space-Track

THOR ABLESTAR R/B, 47 is space debris in LEO originally from a launch on Wed, 22 Jun 1960 UTC launched from the Air Force Eastern Test Range (AFETR). Debris objects in space refer to the collection of defunct objects orbiting the Earth. Examples of debris include non-operational satellites, rocket bodies, and fragments generated from explosions, collisions, or faulty payload assembly.

Loading next visibility...
Identifier
47, 1960-007C
Orbit
LEO
Country
Flag of USUS
Related business
Manufacturer
Aerojet
Mission
Spacecraft
Bus & Motor
ABLESTAR, Unknown motor
Mass
~600 kg wet, 600 kg dry
Launch date (UTC)
1960-06-22 (65 years ago)
Launch vehicle
Unknown
Launch site
Air Force Eastern Test Range (AFETR)
Object type
Payload
Rocket body
Debris
Shape & HBR
Cyl, 2.4 m
Radar Cross Section
6.048 m², Large (>1 m²)

Expand to show TLE details & history
Last TLE update: 9 hours ago

TLE from 9 hours ago
0 THOR ABLESTAR R/B
1 00047U 60007C   25242.91412455  .00000699  00000-0  17267-3 0  9990
2 00047  66.6640 106.5264 0221183 349.1512  10.4861 14.44823046408869
Epoch: 2025-08-30T21:56Z
TLE epoch observation values (Epoch: 2025-08-30T21:56:20.361Z)
Latitude
0.00002°
Longitude
158.09998°
Altitude
589.961 km
Speed
7.647 km/s
True Right ascension
07h 06m 06s
True Declination
0° 00' 00"
Sunlit
Object was in daylight at epoch
Visualization orbit readout
Latitude
Unknown
Longitude
Unknown
Altitude
Unknown
Speed
Unknown
Apparent Right ascension
Unknown
Apparent Declination
Unknown
Sunlit
N/A
Visualization observer readout
Local Sidereal Time
22:48:46
Azimuth
Unknown
Elevation
Unknown
Doppler factor
Unknown
Orbital elements
Apogee altitude
898.437 km
Perigee altitude
583.512 km
Semi-major axis
7,119.111 km
Eccentricity
0.02212
Inclination
66.664°
RAAN
106.5264°
Arg. of periapsis
349.1512°
True anomaly
10.96025°
Mean anomaly
10.4861°
Eccentric anomaly
10.72187°
Mean motion
3.6133 °/min
Orbital period
99.63 mins
BSTAR
0.00017267
Loading maneuver chart data...
Computing Atmospheric mass density...
Loading historical data...
Loading historical data...
Loading historical data...
Loading historical data...
Loading historical data...
Loading historical data...
Loading historical data...

Documentation

Showing up to 5 results
|